Torna al catalogo

STARLINK-11491

AttivoComunicazioniVLEO
NORAD 62269·PAYLOAD·🇺🇸 United States

Lanciato Dec 8, 2024 da Cape Canaveral Space Force Station

Loading…

Prossimi Passaggi (prossime 24 ore)

TLE

AggiornatoSource: CelesTrak SupGP

Epoca: Sep 14, 2026, 21:13 UTC

1 62269C 24237C   26257.88451389  .00006067  00000+0  47094-4 0  2574
2 62269  43.0006 356.0203 0001739 280.8547 301.1758 15.70848013    16

Traccia STARLINK-11491 in tempo reale con AllMySat

Download on the App Store